Find Starlink 11545

NORAD ID: 63016 Int'l Des: 2025-032 Owner: SPXS Country: US Constellation: starlink operational
別名: STARLINK-11545 [DTC] celestrak
LEOCIRCULAR

現在のビュー

3D地球を読み込み中...

About Starlink 11545

Starlink 11545 (NORAD 63016) is a starlink constellation satellite (v2 mini d2c) launched Feb 15, 2025 by SPXS of US. It operates in LEO, CIRCULAR orbit with a mass of 960.00 kg.

次回通過

Passes for default location (London). Set your location on the main map for personalized predictions.

高度履歴

Loading altitude history...

軌道要素

1 63016U 25032M 26235.45755416 .00131071 00000-0 10072-2 0 9998
2 63016 43.0003 269.9744 0002826 297.4222 62.6358 15.70878327 88458
Epoch: Aug 23, 2026 • Age: 21 hours

現在のステータス

高度 360.4 km
遠地点 / 近地点 N/A
速度 7.69 km/s
衛星直下点 -20.50°S, 20.01°E
打ち上げ日 Feb 15, 2025
運用期間 1.5 years
タイプ internet

技術仕様

分類 Payload
質量 960.00 kg
乾燥質量 910.00 kg
総質量 960.00 kg
長さ 0.30 m
直径 4.10 m
スパン 29.00 m
形状 Box + pan
製造者 SPXS
バスタイプ Starlink V2MD
フェーズステータス In Orbit
所有者/国 SPXS/US

Most Searched